Location: Brunembert
(50.7122°N, 1.8935°E)
Time: 09:44:02
(UTC+00:00)

BREEZE-M DEB (TANK) - Pass Details

Date: 22 April 2021
Orbit: 291 x 15382 km, 49.4° (Epoch: 05 May)

Event Time Altitude Azimuth Distance (km) Brightness Sun altitude
Rises 21:52:25 0° 288° (WNW) 6,626 9.0 -21.7°
Reaches altitude 10° 21:58:42 10° 284° (WNW) 3,897 7.7 -22.2°
Enters shadow 22:05:41 41° 222° (SW) 960 3.8 -22.7°
